When you browse on this site, cookies collect data to enhance your experience and personalize the content and advertising you see.
Visit our Privacy Policy to learn more. By continuing to use the site, you agree to this use of cookies and data.
  • In France
  • List of Countries
  • For 7 days
  • Water Temperature
  • Satellite Maps
  • Weather Map
  • Weather Widgets
  • user-avatar
    Login

    Hourly Weather Santa Cruz

    Today, 21 March, Thursday

    Time Temperature Precipitation Wind Pressure Humidity
    00:00 +22°C° 0 mm 4 mps 726 mmHg 70%
    01:00 +22°C° 0 mm 4 mps 725 mmHg 70%
    02:00 +21°C° 0 mm 4 mps 725 mmHg 71%
    03:00 +21°C° 0 mm 4 mps 725 mmHg 71%
    04:00 +21°C° 0 mm 4 mps 725 mmHg 71%
    05:00 +21°C° 0 mm 4 mps 725 mmHg 72%
    06:00 +21°C° 0 mm 4 mps 726 mmHg 70%
    07:00 +22°C° 0 mm 5 mps 726 mmHg 69%
    08:00 +22°C° 0 mm 5 mps 726 mmHg 68%
    09:00 +25°C° 0 mm 5 mps 726 mmHg 63%
    10:00 +26°C° 0 mm 5 mps 726 mmHg 58%
    11:00 +28°C° 0 mm 5 mps 727 mmHg 53%
    12:00 +29°C° 0 mm 4 mps 726 mmHg 51%
    13:00 +30°C° 0 mm 4 mps 725 mmHg 49%
    14:00 +32°C° 0 mm 4 mps 724 mmHg 47%
    15:00 +30°C° 0 mm 3 mps 723 mmHg 49%
    16:00 +29°C° 0 mm 3 mps 723 mmHg 52%
    17:00 +29°C° 0 mm 2 mps 722 mmHg 55%
    18:00 +28°C° 0 mm 2 mps 722 mmHg 58%
    19:00 +26°C° 0 mm 2 mps 723 mmHg 62%
    20:00 +25°C° 0 mm 1 mps 723 mmHg 66%
    21:00 +24°C° 0 mm 1 mps 723 mmHg 67%
    22:00 +24°C° 0 mm 2 mps 724 mmHg 69%
    23:00 +23°C° 0 mm 2 mps 724 mmHg 70%

    Tomorrow, 22 March, Friday

    Time Temperature Precipitation Wind Pressure Humidity
    00:00 +23°C° 0 mm 2 mps 724 mmHg 71%
    01:00 +23°C° 0 mm 2 mps 724 mmHg 71%
    02:00 +22°C° 0 mm 3 mps 724 mmHg 72%
    03:00 +23°C° 0 mm 2 mps 724 mmHg 73%
    04:00 +23°C° 0 mm 2 mps 724 mmHg 74%
    05:00 +21°C° 0 mm 2 mps 723 mmHg 75%
    06:00 +23°C° 0 mm 2 mps 724 mmHg 73%
    07:00 +24°C° 0 mm 3 mps 724 mmHg 71%
    08:00 +25°C° 0 mm 3 mps 725 mmHg 68%
    09:00 +26°C° 0 mm 3 mps 725 mmHg 62%
    10:00 +28°C° 0 mm 2 mps 725 mmHg 56%
    11:00 +30°C° 0 mm 2 mps 725 mmHg 50%
    12:00 +31°C° 0 mm 2 mps 725 mmHg 49%
    13:00 +32°C° 0 mm 1 mps 724 mmHg 47%
    14:00 +32°C° 0 mm 1 mps 723 mmHg 46%
    15:00 +31°C° 0 mm 1 mps 723 mmHg 50%
    16:00 +30°C° 0 mm 1 mps 722 mmHg 54%
    17:00 +29°C° 0 mm 1 mps 722 mmHg 58%
    18:00 +28°C° 0 mm 1 mps 722 mmHg 60%
    19:00 +27°C° 0 mm 1 mps 723 mmHg 62%
    20:00 +26°C° 0 mm 1 mps 723 mmHg 64%
    21:00 +26°C° 0 mm 2 mps 724 mmHg 64%
    22:00 +26°C° 0 mm 2 mps 724 mmHg 63%
    23:00 +26°C° 0 mm 2 mps 725 mmHg 63%

    Day after tomorrow, 23 March, Saturday

    Time Temperature Precipitation Wind Pressure Humidity
    00:00 +25°C° 0 mm 2 mps 725 mmHg 64%
    01:00 +25°C° 0 mm 2 mps 724 mmHg 66%
    02:00 +25°C° 0 mm 2 mps 724 mmHg 67%
    03:00 +24°C° 0 mm 2 mps 724 mmHg 68%
    04:00 +24°C° 0 mm 2 mps 724 mmHg 68%
    05:00 +24°C° 0 mm 2 mps 724 mmHg 69%
    06:00 +25°C° 0 mm 2 mps 724 mmHg 66%
    07:00 +26°C° 0 mm 3 mps 725 mmHg 64%
    08:00 +27°C° 0 mm 3 mps 725 mmHg 61%
    09:00 +29°C° 0 mm 3 mps 725 mmHg 55%
    10:00 +30°C° 0 mm 3 mps 725 mmHg 49%
    11:00 +33°C° 0 mm 3 mps 726 mmHg 43%
    12:00 +34°C° 0 mm 2 mps 725 mmHg 41%
    13:00 +35°C° 0 mm 2 mps 724 mmHg 39%
    14:00 +35°C° 0 mm 1 mps 723 mmHg 37%
    15:00 +34°C° 0 mm 1 mps 722 mmHg 42%
    16:00 +32°C° 0 mm 1 mps 722 mmHg 47%
    17:00 +31°C° 0 mm 1 mps 721 mmHg 52%
    18:00 +30°C° 0 mm 1 mps 721 mmHg 54%
    19:00 +27°C° 0 mm 0 mps 722 mmHg 57%
    20:00 +26°C° 0 mm 0 mps 722 mmHg 59%
    21:00 +25°C° 0 mm 0 mps 723 mmHg 60%
    22:00 +25°C° 0 mm 0 mps 723 mmHg 62%
    23:00 +24°C° 0 mm 0 mps 724 mmHg 63%

    24 March, Sunday

    Time Temperature Precipitation Wind Pressure Humidity
    00:00 +24°C° 0 mm 0 mps 723 mmHg 65%
    01:00 +23°C° 0 mm 0 mps 723 mmHg 67%
    02:00 +24°C° 0 mm 1 mps 722 mmHg 69%
    03:00 +24°C° 0 mm 1 mps 722 mmHg 70%
    04:00 +24°C° 0 mm 1 mps 722 mmHg 71%
    05:00 +24°C° 0 mm 1 mps 722 mmHg 72%
    06:00 +25°C° 0 mm 1 mps 722 mmHg 70%
    07:00 +26°C° 0 mm 1 mps 723 mmHg 68%
    08:00 +27°C° 0 mm 1 mps 724 mmHg 65%
    09:00 +29°C° 0 mm 1 mps 724 mmHg 58%
    10:00 +32°C° 0 mm 1 mps 724 mmHg 51%
    11:00 +35°C° 0 mm 1 mps 724 mmHg 43%
    12:00 +35°C° 0 mm 1 mps 723 mmHg 43%
    13:00 +35°C° 0 mm 1 mps 722 mmHg 42%
    14:00 +35°C° 0 mm 1 mps 721 mmHg 41%
    15:00 +34°C° 0 mm 1 mps 721 mmHg 44%
    16:00 +34°C° 0 mm 1 mps 721 mmHg 46%
    17:00 +33°C° 0 mm 1 mps 721 mmHg 49%
    18:00 +32°C° 0 mm 1 mps 721 mmHg 52%
    19:00 +30°C° 0 mm 1 mps 722 mmHg 55%
    20:00 +29°C° 0 mm 1 mps 722 mmHg 58%
    21:00 +28°C° 0 mm 1 mps 722 mmHg 61%
    22:00 +27°C° 0 mm 1 mps 723 mmHg 64%
    23:00 +27°C° 0 mm 1 mps 723 mmHg 68%

    25 March, Monday

    Time Temperature Precipitation Wind Pressure Humidity
    00:00 +26°C° 0.1 mm 2 mps 723 mmHg 72%
    01:00 +25°C° 0.1 mm 2 mps 722 mmHg 76%
    02:00 +25°C° 0.1 mm 2 mps 722 mmHg 80%
    03:00 +25°C° 0.2 mm 2 mps 722 mmHg 82%
    04:00 +24°C° 0.2 mm 3 mps 722 mmHg 84%
    05:00 +24°C° 0.2 mm 3 mps 722 mmHg 86%
    06:00 +25°C° 0 mm 3 mps 722 mmHg 82%
    07:00 +26°C° 0 mm 3 mps 723 mmHg 79%
    08:00 +26°C° 0 mm 3 mps 724 mmHg 75%
    09:00 +28°C° 0.2 mm 3 mps 724 mmHg 70%
    10:00 +30°C° 0.2 mm 3 mps 724 mmHg 65%
    11:00 +31°C° 0.2 mm 3 mps 724 mmHg 61%
    12:00 +33°C° 0.3 mm 3 mps 723 mmHg 59%
    13:00 +33°C° 0.3 mm 3 mps 722 mmHg 57%
    14:00 +34°C° 0.3 mm 3 mps 721 mmHg 56%
    15:00 +33°C° 0.2 mm 3 mps 721 mmHg 58%
    16:00 +31°C° 0.2 mm 3 mps 721 mmHg 60%
    17:00 +31°C° 0.2 mm 3 mps 721 mmHg 63%
    18:00 +29°C° 0.2 mm 3 mps 721 mmHg 68%
    19:00 +27°C° 0.2 mm 3 mps 722 mmHg 74%
    20:00 +26°C° 0.2 mm 3 mps 722 mmHg 80%
    21:00 +25°C° 0.8 mm 3 mps 723 mmHg 83%
    22:00 +24°C° 0.8 mm 3 mps 723 mmHg 86%
    23:00 +24°C° 0.8 mm 3 mps 723 mmHg 90%

    26 March, Tuesday

    Time Temperature Precipitation Wind Pressure Humidity
    00:00 +24°C° 0.6 mm 3 mps 723 mmHg 89%
    01:00 +24°C° 0.6 mm 3 mps 723 mmHg 89%
    02:00 +22°C° 0.6 mm 3 mps 723 mmHg 89%
    03:00 +22°C° 0.9 mm 3 mps 723 mmHg 90%
    04:00 +22°C° 0.9 mm 4 mps 723 mmHg 92%
    05:00 +22°C° 0.9 mm 4 mps 723 mmHg 94%
    06:00 +22°C° 0.8 mm 4 mps 724 mmHg 93%
    07:00 +22°C° 0.8 mm 4 mps 724 mmHg 93%
    08:00 +22°C° 0.8 mm 4 mps 725 mmHg 92%
    09:00 +21°C° 1.5 mm 5 mps 726 mmHg 93%
    10:00 +21°C° 1.5 mm 5 mps 726 mmHg 93%
    11:00 +20°C° 1.5 mm 5 mps 726 mmHg 93%
    12:00 +20°C° 2.7 mm 5 mps 726 mmHg 93%
    13:00 +19°C° 2.7 mm 5 mps 725 mmHg 92%
    14:00 +19°C° 2.7 mm 5 mps 725 mmHg 92%
    15:00 +19°C° 0.8 mm 5 mps 724 mmHg 91%
    16:00 +19°C° 0.8 mm 5 mps 724 mmHg 90%
    17:00 +19°C° 0.8 mm 5 mps 724 mmHg 89%
    18:00 +20°C° 0.1 mm 5 mps 725 mmHg 84%
    19:00 +20°C° 0.1 mm 5 mps 725 mmHg 79%
    20:00 +21°C° 0.1 mm 6 mps 726 mmHg 73%
    21:00 +21°C° 0 mm 6 mps 726 mmHg 69%
    22:00 +22°C° 0 mm 5 mps 726 mmHg 64%
    23:00 +22°C° 0 mm 5 mps 727 mmHg 60%
    Show more